Hourly Data Report for October 17, 2015

All times are specified in Local Standard Time (LST). Add 1 hour to adjust for Daylight Saving Time where and when it is observed.

KAMLOOPS A
BRITISH COLUMBIA

50°42'09.000" N
120°26'55.000" W
345.30 m
1163781
71887
YKA

Download Data

Hourly Data (October 2015)
Hourly Data Report for October 17, 2015
Temp Definition
°C
Dew Point Temp Definition
°C
Rel Hum Definition
%
Wind Dir Definition
10's deg

Wind Spd Definition
km/h
Visibility Definition
km
Stn Press Definition
kPa
Hmdx Definition


Wind Chill Definition


Weather Definition


TIME
00:00 Legend Double Dagger 6.5 1.8 72 6 4 64.4 97.46     LegendNANA
01:00 Legend Double Dagger 5.7 1.6 75 8 6 64.4 97.45     Clear
02:00 Legend Double Dagger 4.5 1.2 79 11 13 64.4 97.40     LegendNANA
03:00 Legend Double Dagger 6.1 2.7 79 13 9 64.4 97.37     LegendNANA
04:00 Legend Double Dagger 4.9 1.6 79 11 13 64.4 97.34     Clear
05:00 Legend Double Dagger 2.8 0.5 85 36 2 64.4 97.35     LegendNANA
06:00 Legend Double Dagger 3.2 0.8 84 8 7 64.4 97.34     LegendNANA
07:00 Legend Double Dagger 2.9 0.8 86 3 5 64.4 97.33     Mostly Cloudy
08:00 Legend Double Dagger 6.4 1.9 73 7 7 64.4 97.31     LegendNANA
09:00 Legend Double Dagger 8.4 2.7 67 11 9 64.4 97.26     LegendNANA
10:00 Legend Double Dagger 9.4 3.8 68 17 5 64.4 97.21     Mostly Cloudy
11:00 Legend Double Dagger 12.1 3.4 55 14 7 64.4 97.13     LegendNANA
12:00 Legend Double Dagger 13.9 3.4 49 11 10 64.4 97.02     LegendNANA
13:00 Legend Double Dagger 16.2 3.4 42 7 4 64.4 96.94     Mostly Cloudy
14:00 Legend Double Dagger 15.5 4.9 49 28 12 64.4 96.88     LegendNANA
15:00 Legend Double Dagger 14.3 4.4 51 27 12 64.4 96.87     LegendNANA
16:00 Legend Double Dagger 13.9 4.8 54 27 14 64.4 96.85     Mostly Cloudy
17:00 Legend Double Dagger 14.0 5.7 57 32 8 64.4 96.85     LegendNANA
18:00 Legend Double Dagger 13.9 5.3 56 13 3 64.4 96.87     LegendNANA
19:00 Legend Double Dagger 12.9 7.4 69 36 2 64.4 96.93     Cloudy
20:00 Legend Double Dagger 11.9 7.1 72 27 4 64.4 96.98     LegendNANA
21:00 Legend Double Dagger 12.5 6.8 68 24 10 64.4 97.02     Rain Showers
22:00 Legend Double Dagger 13.0 7.5 69 4 3 64.4 97.04     Rain Showers
23:00 Legend Double Dagger 12.4 7.5 72 12 9 64.4 97.11     LegendNANA

Notes on Data Quality.

Legend

  • E = Estimated
  • M = Missing
  • NA = Not Available
  • ‡ = Partner data that is not subject to review by the National Climate Archives
Date modified: